Temperature
13 12 12 12 12 12 12 12 12 12 12 11 11 10 10 10 10 10 10 11 11 11 11 11 11 11 11 11 11 11 11 11 11 11 11 11 11 11
12 12 12 12 12 12 12 11 11 12 12 11 10 10 10 10 10 10 10 11 11 11 11 11 11 11 11 11 11 11 11 11 11 11 11 11 11 11
12 12 12 12 12 12 11 11 11 11 11 10 10 10 10 10 10 10 10 10 10 11 10 10 10 10 10 11 11 10 10 10 11 10 10 10 10 11
12 12 12 12 12 11 11 11 11 11 10 10 10 10 10 10 10 10 10 10 10 10 10 10 10 10 10 10 10 10 10 10 10 10 10 10 10 10
12 12 12 12 12 11 11 11 11 10 10 10 10 10 10 10 10 10 10 10 10 10 10 10 10 10 10 10 10 10 10 10 10 10 10 10 10 10
12 12 12 12 11 11 11 11 11 10 10 10 10 10 10 10 9 9 9 10 10 9 9 10 10 9 10 9 9 10 10 10 10 10 10 10 10 10
11 11 11 11 11 11 11 11 10 10 10 10 10 9 9 9 9 9 9 9 9 9 9 9 9 9 9 9 9 9 9 9 9 9 9 10 10 10
11 11 11 11 11 11 11 11 10 10 10 10 9 9 9 9 9 9 9 9 9 9 9 9 9 9 9 9 9 9 9 9 9 9 9 9 9 9
11 11 11 11 11 11 11 10 10 10 10 9 9 9 9 9 9 9 9 9 8 9 9 8 8 8 9 9 9 9 9 9 9 9 9 9 9 9
11 11 10 10 10 10 10 10 10 10 10 9 9 9 9 9 9 8 8 8 8 8 8 8 8 8 8 8 9 9 8 8 8 8 8 8 9 9
10 10 10 10 10 10 10 9 9 9 9 9 9 9 9 9 8 8 8 8 8 8 8 8 8 8 8 8 8 8 8 8 8 8 8 8 8 8
9 9 10 9 9 9 9 9 9 9 9 9 8 8 8 8 8 8 7 7 7 7 7 7 7 7 7 7 7 8 8 8 8 8 8 8 8 8
9 9 9 9 9 9 9 9 8 8 8 8 8 8 8 7 7 7 7 7 7 7 7 7 7 7 6 7 7 7 7 7 7 7 7 8 8 8
9 9 9 9 9 9 8 8 8 8 7 7 7 7 7 7 7 7 7 7 7 7 7 7 6 6 6 6 6 7 7 7 7 7 7 7 7 7
8 8 8 8 8 8 8 8 7 7 7 7 7 7 7 7 7 7 7 7 7 6 6 6 6 6 6 6 6 6 6 6 6 6 6 6 6 6
8 8 8 8 8 7 7 7 7 6 6 6 6 6 6 6 6 6 6 6 6 6 6 6 6 6 6 6 6 6 6 6 6 6 6 6 6 6
7 7 7 7 7 7 7 7 6 6 6 6 6 6 6 6 6 6 6 5 5 5 5 6 6 5 5 5 5 5 5 5 5 5 5 5 5 5
7 7 7 6 6 6 6 6 6 6 6 6 5 5 5 5 5 5 5 5 5 5 5 5 5 5 5 5 5 5 5 5 5 5 5 5 5 5
6 6 6 6 6 6 6 6 6 5 5 5 5 5 5 5 5 5 4 4 4 4 4 4 4 4 4 4 5 5 4 4 4 4 4 4 4 4
6 6 6 6 6 6 6 5 5 5 5 5 5 5 5 5 4 4 4 4 4 4 4 4 4 4 4 4 4 4 4 4 4 4 4 4 4 4
6 5 5 5 5 5 5 5 5 5 5 5 4 4 4 4 4 4 4 4 4 3 3 4 4 4 3 3 3 3 4 4 3 3 3 3 3 3
5 5 5 5 5 5 5 5 4 4 4 4 4 4 4 4 4 4 3 3 3 3 3 3 3 3 3 3 3 3 3 3 3 3 3 3 2 2
5 5 5 5 5 5 4 4 4 4 4 4 4 4 4 4 4 3 3 3 3 3 3 3 3 3 3 2 2 2 2 2 2 2 2 2 2 2
Wind_Speed
2 2 2 1 2 1 2 3 3 4 3 1 1 1 1 2 2 2 1 3 2 2 3 3 3 3 4 3 3 4 5 5 5 6 6 6 5 6
2 3 3 2 2 2 2 2 3 4 3 2 2 1 1 1 1 2 1 1 0 1 2 2 2 3 3 3 3 4 5 5 6 6 6 6 6 6
4 4 4 3 3 3 2 2 3 3 3 2 2 2 2 2 1 2 2 2 0 1 1 2 2 3 3 3 3 3 4 5 6 6 6 7 7 7
5 5 4 3 4 3 3 3 3 3 4 3 3 2 3 2 2 2 2 2 1 1 1 1 2 3 3 3 3 3 4 5 5 6 7 7 7 7
5 5 5 4 5 4 4 4 3 3 3 3 2 2 3 2 2 2 3 2 2 1 2 3 3 4 4 4 4 4 4 5 6 6 7 7 7 7
5 5 5 5 5 5 4 5 4 4 4 3 3 3 2 2 3 3 2 2 2 2 2 3 3 5 5 4 4 4 4 5 6 7 7 6 6 7
5 5 5 3 3 3 4 4 4 4 4 4 3 3 3 2 3 3 3 3 3 2 2 2 3 3 3 3 3 3 4 4 5 6 6 6 7 7
5 5 4 4 3 3 3 4 4 5 5 5 4 5 5 4 3 3 3 4 3 1 3 3 3 3 2 2 1 2 3 4 5 6 7 7 7 7
5 4 3 3 4 4 4 4 4 4 5 6 6 6 5 4 4 5 4 4 4 2 3 4 3 3 3 2 0 1 3 4 5 6 7 7 7 7
5 5 4 4 4 4 4 4 4 4 4 6 5 4 4 4 4 5 5 4 4 3 3 4 4 4 3 3 2 2 3 4 5 6 6 7 7 7
5 5 5 5 3 2 4 4 4 3 1 1 3 2 2 2 3 3 4 4 4 3 3 3 4 4 4 3 2 3 3 4 5 5 6 7 7 7
4 4 3 3 4 4 4 4 4 3 2 2 2 3 3 3 4 5 4 5 4 3 2 3 4 3 3 3 2 2 3 4 5 6 6 6 7 6
4 4 4 3 5 6 5 4 2 2 2 3 3 3 3 2 3 3 4 4 5 4 2 3 4 4 4 4 3 3 3 4 3 4 5 5 5 5
4 4 3 5 5 5 4 1 2 2 3 3 3 3 3 2 2 3 3 4 4 5 4 4 4 4 4 5 4 3 3 4 4 4 4 3 4 5
4 2 2 4 5 5 4 4 4 3 3 3 4 3 3 3 2 2 2 2 3 4 4 5 5 5 5 5 5 5 5 4 4 4 4 4 4 4
3 3 4 5 5 4 5 5 4 4 4 4 3 3 2 2 3 3 3 2 3 3 3 4 5 6 5 6 6 6 6 4 4 4 5 5 4 4
3 3 3 3 4 4 4 4 4 4 4 4 3 3 3 3 3 3 3 3 4 3 3 2 3 4 6 6 6 6 6 5 5 5 5 5 5 5
4 5 5 5 5 5 5 5 4 4 4 4 4 4 4 4 4 3 3 4 4 4 4 3 2 3 4 4 5 6 5 5 5 5 5 6 6 5
6 6 6 6 6 5 5 5 5 5 4 5 5 5 4 4 4 4 4 4 4 4 4 4 3 3 5 5 4 5 6 6 5 5 5 6 7 6
6 6 6 6 6 6 5 5 5 5 5 5 5 5 5 4 4 4 4 5 4 5 5 4 4 4 5 6 5 4 6 6 5 6 6 6 6 6
6 6 6 5 5 6 6 6 6 6 6 5 5 5 5 5 5 5 5 5 5 5 6 5 4 5 5 4 5 5 4 5 6 6 6 6 6 6
6 6 6 6 6 6 6 6 6 6 6 6 5 5 5 5 6 6 6 5 5 5 6 5 4 4 4 5 6 7 5 4 4 5 6 6 5 5
6 6 6 6 6 6 6 6 7 6 6 6 5 5 5 5 5 5 6 6 5 5 5 4 4 4 5 6 6 6 6 6 4 4 4 4 7 9
Wind_Direction
226 225 236 239 247 255 259 266 276 281 286 292 299 329 319 340 343 322 19 58 27 6 354 351 349 351 356 350 356 358 354 349 348 345 335 329 329 329
228 236 239 237 233 235 244 264 275 280 287 296 292 284 310 292 317 312 329 122 75 359 350 341 341 340 335 338 345 347 347 346 343 338 335 331 325 322
219 227 229 234 227 228 234 250 260 266 267 284 287 279 272 283 275 288 293 279 222 164 303 308 332 326 323 322 320 330 335 337 335 331 327 324 323 321
226 228 229 221 228 232 231 241 248 254 254 263 264 274 276 285 293 288 287 293 290 148 265 274 297 310 315 316 315 311 318 323 326 326 321 319 316 316
228 228 229 225 228 230 234 238 237 240 243 243 252 265 266 279 286 282 279 290 287 221 227 248 259 277 291 298 297 295 303 312 318 319 316 316 314 312
230 232 233 234 237 235 234 236 233 231 231 230 234 237 245 267 270 268 271 276 279 266 263 263 247 248 258 267 271 283 295 307 312 314 310 311 313 313
230 233 234 247 283 262 250 238 229 226 223 227 230 239 238 242 254 259 276 278 270 271 273 269 260 258 249 240 256 279 286 299 310 315 312 309 311 311
228 231 227 224 224 227 251 268 264 241 232 229 235 243 247 238 242 256 267 272 270 260 279 282 276 274 282 300 336 295 287 297 308 314 318 313 311 312
227 225 224 228 217 220 210 218 240 262 265 253 246 248 251 243 236 245 258 266 273 282 282 279 281 279 277 278 305 295 289 297 308 314 319 316 314 313
229 227 222 222 219 220 212 221 227 228 238 247 252 257 256 251 247 255 264 267 267 253 255 273 280 284 281 270 215 241 269 285 299 308 315 318 314 309
235 233 232 227 182 208 222 220 223 225 179 317 338 336 340 304 273 249 251 253 259 257 254 268 280 286 277 263 214 203 242 264 279 291 300 306 306 297
233 230 229 239 168 188 222 225 228 230 214 198 210 213 220 211 229 249 254 255 261 263 252 269 277 284 280 263 259 265 262 256 259 270 280 293 306 300
223 227 219 187 182 198 230 231 229 239 226 226 225 220 221 228 235 254 261 260 260 264 272 265 277 275 274 286 286 287 291 293 283 277 265 276 293 297
225 225 216 183 195 199 215 202 143 200 219 220 229 230 229 233 247 257 266 271 274 271 271 267 271 274 275 280 287 290 286 287 292 294 292 269 259 256
233 233 206 183 193 199 195 182 190 216 221 221 227 235 239 242 243 244 254 266 275 273 266 261 261 263 261 268 278 287 290 289 286 291 295 298 297 295
227 195 178 178 193 197 192 198 215 223 225 228 232 232 230 232 235 238 239 238 251 258 262 267 265 261 260 266 270 277 282 283 286 289 294 297 299 289
215 214 206 194 201 204 207 207 212 216 221 230 229 224 224 225 234 234 238 244 248 253 259 268 274 270 266 268 268 269 273 276 278 286 290 288 287 287
203 214 215 215 216 215 214 214 215 218 220 223 227 227 230 231 233 233 238 244 250 255 256 253 257 273 276 273 262 267 273 276 280 281 279 277 281 284
214 222 222 223 223 223 223 223 224 224 222 223 224 227 231 234 234 235 237 245 251 257 258 252 246 250 266 277 266 243 267 275 278 277 274 274 277 284
224 228 228 226 224 223 223 225 225 223 224 226 228 229 230 233 237 239 240 245 252 258 260 254 248 249 259 274 280 277 255 270 275 278 281 279 282 289
227 231 232 229 227 226 225 225 225 224 224 224 228 230 231 234 239 242 243 244 248 251 253 257 259 256 262 272 272 268 267 259 276 281 284 281 284 282
233 234 232 229 228 228 226 225 225 226 226 226 229 231 233 236 240 242 242 241 244 251 258 263 257 245 246 254 265 273 277 283 275 273 275 278 287 284
237 236 235 229 225 224 225 225 226 228 228 229 229 230 232 235 240 243 244 245 248 253 257 259 255 251 252 255 265 272 276 281 285 288 279 269 267 277
Height
1538 1538 1537 1537 1536 1536 1536 1536 1537 1535 1534 1533 1532 1531 1530 1528 1527 1526 1525 1524 1523 1522 1522 1521 1520 1520 1520 1520 1519 1518 1518 1517 1516 1516 1516 1515 1514 1513
1535 1535 1535 1535 1535 1534 1534 1534 1534 1534 1533 1532 1530 1529 1528 1527 1526 1525 1524 1523 1521 1521 1520 1519 1519 1519 1519 1518 1518 1517 1516 1515 1515 1514 1514 1513 1512 1512
1534 1534 1533 1533 1533 1532 1532 1532 1532 1532 1531 1530 1529 1528 1526 1526 1524 1524 1523 1521 1520 1519 1518 1517 1517 1517 1517 1516 1516 1515 1514 1514 1513 1512 1512 1511 1510 1510
1531 1531 1531 1530 1530 1530 1529 1529 1529 1529 1529 1528 1527 1526 1525 1524 1523 1522 1521 1520 1519 1517 1516 1516 1515 1515 1515 1514 1514 1513 1512 1512 1511 1510 1510 1509 1508 1508
1528 1528 1528 1528 1527 1527 1527 1527 1526 1526 1526 1525 1525 1524 1523 1522 1521 1520 1519 1518 1517 1516 1515 1514 1514 1513 1513 1513 1512 1511 1511 1510 1509 1508 1507 1507 1506 1505
1526 1525 1525 1525 1525 1524 1524 1524 1523 1523 1523 1523 1522 1522 1521 1520 1519 1518 1518 1517 1516 1515 1514 1513 1512 1512 1511 1510 1510 1509 1509 1508 1507 1506 1505 1504 1504 1503
1522 1522 1522 1522 1521 1521 1521 1521 1520 1520 1520 1520 1520 1519 1519 1518 1517 1516 1516 1515 1514 1513 1512 1511 1511 1510 1509 1508 1508 1507 1506 1505 1505 1504 1503 1502 1501 1500
1519 1519 1519 1518 1517 1517 1517 1517 1517 1517 1517 1517 1517 1516 1516 1515 1514 1514 1513 1513 1513 1512 1511 1510 1509 1508 1507 1506 1505 1504 1503 1503 1502 1501 1500 1499 1498 1497
1515 1515 1515 1514 1514 1514 1514 1513 1513 1513 1514 1514 1514 1513 1513 1512 1512 1511 1511 1511 1510 1509 1508 1507 1507 1506 1505 1504 1503 1502 1501 1500 1499 1498 1497 1496 1495 1494
1511 1511 1511 1511 1510 1510 1510 1510 1510 1510 1510 1510 1510 1510 1510 1509 1509 1509 1508 1507 1507 1507 1506 1505 1504 1503 1502 1501 1500 1499 1498 1498 1496 1495 1494 1493 1492 1491
1507 1507 1507 1507 1507 1507 1507 1507 1506 1506 1506 1506 1506 1505 1505 1505 1505 1505 1505 1505 1504 1504 1503 1502 1501 1500 1499 1498 1497 1496 1495 1495 1493 1492 1491 1490 1489 1488
1502 1502 1502 1503 1503 1503 1503 1503 1503 1503 1503 1503 1502 1502 1502 1501 1501 1501 1501 1502 1501 1501 1500 1499 1498 1497 1496 1496 1495 1493 1492 1491 1490 1489 1488 1487 1486 1485
1497 1498 1498 1498 1498 1499 1499 1499 1499 1499 1499 1499 1499 1499 1498 1498 1498 1497 1498 1498 1498 1497 1497 1496 1495 1495 1494 1493 1492 1491 1490 1488 1487 1486 1485 1484 1482 1481
1493 1493 1493 1494 1494 1494 1495 1495 1495 1496 1496 1496 1496 1495 1495 1495 1494 1494 1494 1494 1494 1494 1494 1493 1492 1492 1491 1490 1489 1488 1487 1486 1485 1483 1482 1480 1479 1478
1489 1489 1489 1489 1490 1490 1491 1491 1492 1492 1492 1492 1492 1492 1492 1491 1491 1491 1490 1490 1490 1490 1490 1489 1489 1488 1488 1487 1486 1484 1483 1482 1481 1480 1478 1477 1475 1474
1485 1485 1485 1485 1486 1486 1487 1487 1488 1488 1488 1488 1488 1488 1488 1488 1487 1487 1487 1486 1486 1486 1486 1486 1485 1485 1484 1483 1482 1481 1480 1479 1477 1476 1475 1473 1472 1471
1480 1481 1481 1481 1481 1482 1482 1483 1483 1484 1484 1484 1485 1485 1484 1484 1484 1484 1484 1483 1483 1483 1482 1482 1482 1481 1480 1480 1478 1477 1476 1475 1474 1472 1471 1469 1468 1467
1476 1476 1476 1476 1477 1477 1478 1478 1479 1479 1480 1480 1481 1481 1481 1481 1481 1480 1480 1480 1480 1479 1479 1478 1477 1477 1476 1475 1475 1473 1472 1471 1470 1468 1467 1465 1464 1463
1471 1471 1471 1472 1472 1473 1473 1474 1474 1475 1475 1476 1476 1477 1477 1477 1477 1477 1476 1476 1476 1475 1475 1475 1474 1473 1472 1471 1469 1469 1468 1466 1465 1464 1462 1461 1459 1458
1466 1466 1467 1467 1467 1468 1468 1469 1470 1470 1471 1471 1472 1472 1472 1473 1473 1473 1472 1472 1472 1471 1471 1470 1470 1469 1468 1468 1466 1464 1464 1462 1461 1460 1458 1457 1455 1454
1460 1461 1461 1462 1462 1463 1463 1464 1465 1465 1466 1466 1467 1467 1468 1468 1468 1468 1468 1468 1468 1467 1466 1466 1465 1465 1464 1463 1462 1460 1459 1458 1457 1456 1454 1453 1450 1449
1455 1456 1456 1456 1457 1457 1458 1459 1459 1460 1460 1461 1461 1462 1463 1463 1463 1463 1463 1463 1463 1463 1462 1462 1461 1460 1460 1459 1457 1456 1455 1454 1452 1451 1450 1449 1447 1445
1450 1450 1451 1451 1451 1452 1453 1453 1454 1454 1454 1455 1456 1456 1457 1458 1458 1458 1459 1459 1458 1458 1458 1457 1457 1456 1455 1455 1454 1452 1451 1449 1448 1447 1445 1444 1443 1441